Flag for Brazil Weather past 2 weeks in Pirassununga, São Paulo, Brazil

Now
86 °F

Clear.


Feels Like: 92 °F
Forecast: N/A
Wind: 3 mph from Southeast

Location: Pirassununga Airport

Current Time: Mar 26, 2015 at 7:32:36 PM

Latest Report: Mar 26, 2015 at 6:00 PM


Visibility: 10 mi

Pressure: 29.92 "Hg

Humidity: 62%

Dew point: 72 °F

Location of PirassunungaLocation

Historic Weather in Pirassununga — Graph

°F

Pirassununga temperature yesterday

Maximum temperature yesterday: 90 °F (at 3:00 PM)
Minimum temperature yesterday: 64 °F (at 6:00 AM)
Average temperature yesterday: 77 °F

Past Weeks' High & Low Weather Summary

 TemperatureHumidityPressure
High90 °F (Mar 25, 3:00 PM)100% (Mar 12, 6:00 AM)30.18 "Hg (Mar 12, 6:00 AM)
Low63 °F (Mar 24, 6:00 AM)43% (Mar 25, 3:00 PM)29.83 "Hg (Mar 11, 5:00 PM)
Average75 °F81%30.01 "Hg
* Reported Mar 11 5:00 PM — Mar 26 5:00 PM, Pirassununga, Weather by CustomWeather, © 2015

Note: Actual official high and low records may vary slightly from our data, if they occured in-between our weather recording intervals... More about our weather records

Advertising

Pirassununga weather history for previous 24 hours

 ConditionsComfort  
Time TempWeatherWind HumidityBarometerVisibility
5:00 PM
Thu, Mar 26
88 °FPassing clouds.3 mph52%29.92 "HgN/A
4:00 PM90 °FScattered clouds.3 mph52%29.92 "HgN/A
3:00 PM88 °FScattered clouds.3 mph55%29.95 "HgN/A
2:00 PM88 °FPassing clouds.5 mph55%29.98 "HgN/A
1:00 PM86 °FScattered clouds.6 mph55%30.01 "HgN/A
12:00 PM84 °FPassing clouds.3 mph58%30.04 "HgN/A
11:00 AM84 °FScattered clouds.3 mph58%30.04 "HgN/A
10:00 AM81 °FPassing clouds.5 mph66%30.07 "HgN/A
9:00 AM75 °FClear.2 mph78%30.07 "Hg5 mi
8:00 AM68 °FFog.No wind100%30.07 "Hg2 mi
7:00 AM64 °FFog.No wind100%30.04 "Hg1 mi
6:00 AM64 °FFog.1 mph100%30.01 "Hg1 mi
11:00 PM
Wed, Mar 25
70 °FClear.1 mph88%30.07 "Hg10 mi
10:00 PM72 °FClear.No wind83%30.04 "Hg10 mi
9:00 PM72 °FClear.5 mph83%30.04 "Hg10 mi
8:00 PM75 °FClear.7 mph74%30.01 "Hg10 mi
7:00 PM77 °FPassing clouds.5 mph74%30.01 "HgN/A
Weather by CustomWeather, © 2015

See weather overviewHow to use our weather pages